Location: Peebles
(55.6412°N, 3.1714°W)
Time: 21:16:56
(UTC+01:00)

deb AGENA D - Pass Details

Date: 09 July 2022
Orbit: 951 x 1019 km, 99.8° (Epoch: 17 August)

Event Time Altitude Azimuth Distance (km) Brightness Sun altitude
Rises 23:14:46 0° 91° (E) 3,761 ? -7.8°
Reaches altitude 10° 23:18:17 10° 71° (ENE) 2,808 ? -8.0°
Maximum altitude 23:21:52 16° 36° (NE) 2,384 ? -8.3°
Drops below altitude 10° 23:25:27 10° 1° (N) 2,798 ? -8.5°
Sets 23:28:56 0° 342° (NNW) 3,739 ? -8.7°
